Location: Unspecified
(0.0000°N, 0.0000°E)
Time: 17:30:47
(UTC+00:00)

deb Explorer IX - Visible Passes

Search period start: 30 October 2014 00:00
Search period end: 09 November 2014 00:00
Orbit: 558 x 1204 km, 38.8° (Epoch: 30 October)

Date Brightness Start Highest point End Pass type
(mag) Time Alt. Az. Time Alt. Az. Time Alt. Az.
30 Oct ? 20:37:33 10° SSW 20:39:18 18° SSW 20:39:18 18° SSW visible
31 Oct ? 20:32:36 10° SSW 20:35:06 23° SSW 20:35:06 23° SSW visible
01 Nov ? 18:44:05 10° SSE 18:45:52 11° SE 18:47:42 10° SE visible
01 Nov ? 20:27:42 10° SW 20:30:55 30° SSW 20:30:55 30° SSW visible
02 Nov ? 18:37:37 10° S 18:41:09 15° SE 18:44:09 12° ESE visible
02 Nov ? 20:22:51 10° SW 20:26:42 38° SW 20:26:42 38° SW visible
03 Nov ? 18:31:52 10° S 18:36:19 20° SE 18:39:56 14° ESE visible
03 Nov ? 20:18:01 10° SW 20:22:29 47° WSW 20:22:29 47° WSW visible
04 Nov ? 18:26:21 10° SSW 18:31:22 26° SE 18:35:42 15° E visible
04 Nov ? 20:13:14 10° WSW 20:18:15 51° W 20:18:15 51° W visible
05 Nov ? 18:20:57 10° SSW 18:26:19 33° SE 18:31:26 14° E visible
05 Nov ? 20:08:31 10° WSW 20:13:59 46° WNW 20:13:59 46° WNW visible
06 Nov ? 18:15:36 10° SSW 18:21:11 44° SE 18:27:07 13° ENE visible
06 Nov ? 20:03:51 10° WSW 20:09:40 36° NW 20:09:40 36° NW visible
07 Nov ? 18:10:19 10° SW 18:15:59 58° SE 18:22:45 10° ENE visible
07 Nov ? 19:59:18 10° W 20:04:42 28° NW 20:05:17 27° NNW visible
08 Nov ? 05:16:35 10° NNW 05:21:57 28° NE 05:26:36 10° E visible
08 Nov ? 18:05:04 10° SW 18:10:44 78° SE 18:17:33 10° NE visible
08 Nov ? 19:54:54 10° W 19:59:36 21° NW 20:00:50 20° NNW visible
